When you browse on this site, cookies collect data to enhance your experience and personalize the content and advertising you see.
Visit our Privacy Policy to learn more. By continuing to use the site, you agree to this use of cookies and data.
  • Em Portugal
  • Lista de países
  • Para 7 dias
  • Temperatura da água
  • Mapas de satélite
  • Mapa do tempo
  • Widgets de tempo
  • user-avatar
    Iniciar Sessão

    Previsão horária em Sofia

    Hoje, 22 Janeiro, Terça-feira

    Tempo Temperatura Precipitação Vento Pressão Humidade
    00:00 +2°C° 0 mm 1 m/s 711 mmHg 95%
    01:00 +2°C° 0 mm 1 m/s 711 mmHg 95%
    02:00 +2°C° 0 mm 1 m/s 711 mmHg 95%
    03:00 +2°C° 0 mm 1 m/s 710 mmHg 94%
    04:00 +1°C° 0 mm 2 m/s 710 mmHg 94%
    05:00 +1°C° 0 mm 2 m/s 710 mmHg 93%
    06:00 +1°C° 0.1 mm 2 m/s 710 mmHg 93%
    07:00 +1°C° 0.1 mm 2 m/s 709 mmHg 92%
    08:00 -1°C° 0.1 mm 2 m/s 709 mmHg 91%
    09:00 +1°C° 0.1 mm 2 m/s 709 mmHg 89%
    10:00 +2°C° 0.1 mm 2 m/s 709 mmHg 86%
    11:00 +3°C° 0.1 mm 2 m/s 709 mmHg 83%
    12:00 +3°C° 0.3 mm 2 m/s 708 mmHg 84%
    13:00 +4°C° 0.3 mm 2 m/s 707 mmHg 84%
    14:00 +4°C° 0.3 mm 2 m/s 707 mmHg 85%
    15:00 +3°C° 0.1 mm 2 m/s 706 mmHg 87%
    16:00 +3°C° 0.1 mm 2 m/s 706 mmHg 88%
    17:00 +2°C° 0.1 mm 2 m/s 705 mmHg 89%
    18:00 +2°C° 0 mm 2 m/s 704 mmHg 90%
    19:00 +2°C° 0 mm 2 m/s 704 mmHg 91%
    20:00 +1°C° 0 mm 2 m/s 703 mmHg 92%
    21:00 +1°C° 0 mm 2 m/s 703 mmHg 92%
    22:00 +1°C° 0 mm 2 m/s 702 mmHg 92%
    23:00 +1°C° 0 mm 2 m/s 702 mmHg 92%

    Amanhã, 23 Janeiro, Quarta-feira

    Tempo Temperatura Precipitação Vento Pressão Humidade
    00:00 +2°C° 0 mm 2 m/s 702 mmHg 92%
    01:00 +2°C° 0 mm 2 m/s 701 mmHg 92%
    02:00 +2°C° 0 mm 2 m/s 701 mmHg 91%
    03:00 +2°C° 0 mm 2 m/s 700 mmHg 92%
    04:00 +2°C° 0 mm 2 m/s 700 mmHg 92%
    05:00 +2°C° 0 mm 2 m/s 700 mmHg 92%
    06:00 +2°C° 0 mm 2 m/s 700 mmHg 91%
    07:00 +1°C° 0 mm 2 m/s 700 mmHg 91%
    08:00 +1°C° 0 mm 2 m/s 700 mmHg 90%
    09:00 +3°C° 0 mm 2 m/s 701 mmHg 85%
    10:00 +4°C° 0 mm 2 m/s 701 mmHg 80%
    11:00 +6°C° 0 mm 2 m/s 701 mmHg 76%
    12:00 +6°C° 0 mm 2 m/s 701 mmHg 72%
    13:00 +7°C° 0 mm 2 m/s 700 mmHg 68%
    14:00 +8°C° 0 mm 3 m/s 700 mmHg 64%
    15:00 +7°C° 0 mm 2 m/s 700 mmHg 68%
    16:00 +6°C° 0 mm 1 m/s 699 mmHg 73%
    17:00 +5°C° 0 mm 1 m/s 699 mmHg 77%
    18:00 +5°C° 0 mm 1 m/s 699 mmHg 79%
    19:00 +4°C° 0 mm 1 m/s 699 mmHg 81%
    20:00 +4°C° 0 mm 1 m/s 699 mmHg 83%
    21:00 +3°C° 0.1 mm 1 m/s 699 mmHg 84%
    22:00 +3°C° 0.1 mm 1 m/s 699 mmHg 86%
    23:00 +3°C° 0.1 mm 1 m/s 698 mmHg 87%

    Depois de amanhã, 24 Janeiro, Quinta-feira

    Tempo Temperatura Precipitação Vento Pressão Humidade
    00:00 +3°C° 0.4 mm 1 m/s 698 mmHg 89%
    01:00 +3°C° 0.4 mm 1 m/s 698 mmHg 91%
    02:00 +3°C° 0.4 mm 1 m/s 697 mmHg 93%
    03:00 +3°C° 0.4 mm 1 m/s 697 mmHg 93%
    04:00 +3°C° 0.4 mm 1 m/s 696 mmHg 94%
    05:00 +3°C° 0.4 mm 1 m/s 696 mmHg 95%
    06:00 +2°C° 0.1 mm 1 m/s 696 mmHg 95%
    07:00 +2°C° 0.1 mm 1 m/s 696 mmHg 95%
    08:00 +2°C° 0.1 mm 1 m/s 696 mmHg 95%
    09:00 +3°C° 0 mm 1 m/s 696 mmHg 94%
    10:00 +2°C° 0 mm 2 m/s 696 mmHg 93%
    11:00 +3°C° 0 mm 2 m/s 696 mmHg 93%
    12:00 +3°C° 0.4 mm 2 m/s 696 mmHg 92%
    13:00 +3°C° 0.4 mm 2 m/s 696 mmHg 91%
    14:00 +3°C° 0.4 mm 2 m/s 696 mmHg 91%
    15:00 +3°C° 0.8 mm 2 m/s 696 mmHg 92%
    16:00 +2°C° 0.8 mm 2 m/s 695 mmHg 93%
    17:00 +2°C° 0.8 mm 2 m/s 695 mmHg 93%
    18:00 +3°C° 0.8 mm 1 m/s 696 mmHg 94%
    19:00 +2°C° 0.8 mm 1 m/s 696 mmHg 94%
    20:00 +2°C° 0.8 mm 1 m/s 697 mmHg 95%
    21:00 +2°C° 0.4 mm 1 m/s 697 mmHg 95%
    22:00 +2°C° 0.4 mm 1 m/s 697 mmHg 95%
    23:00 +2°C° 0.4 mm 1 m/s 698 mmHg 95%

    25 Janeiro, Sexta-feira

    Tempo Temperatura Precipitação Vento Pressão Humidade
    00:00 +2°C° 0.1 mm 1 m/s 698 mmHg 95%
    01:00 +1°C° 0.1 mm 1 m/s 698 mmHg 95%
    02:00 +1°C° 0.1 mm 1 m/s 698 mmHg 95%
    03:00 +1°C° 0 mm 1 m/s 699 mmHg 95%
    04:00 +1°C° 0 mm 1 m/s 699 mmHg 95%
    05:00 +1°C° 0 mm 1 m/s 699 mmHg 95%
    06:00 +1°C° 0 mm 1 m/s 699 mmHg 95%
    07:00 +1°C° 0 mm 1 m/s 699 mmHg 95%
    08:00 +1°C° 0 mm 1 m/s 700 mmHg 95%
    09:00 +1°C° 0.1 mm 1 m/s 700 mmHg 94%
    10:00 +1°C° 0.1 mm 2 m/s 700 mmHg 94%
    11:00 +2°C° 0.1 mm 2 m/s 700 mmHg 93%
    12:00 +2°C° 0.3 mm 2 m/s 699 mmHg 93%
    13:00 +1°C° 0.3 mm 3 m/s 699 mmHg 92%
    14:00 +1°C° 0.3 mm 3 m/s 698 mmHg 92%
    15:00 0°C° 0.7 mm 4 m/s 698 mmHg 92%
    16:00 -1°C° 0.7 mm 4 m/s 698 mmHg 92%
    17:00 -1°C° 0.7 mm 4 m/s 698 mmHg 92%
    18:00 -2°C° 0.4 mm 4 m/s 697 mmHg 92%
    19:00 -2°C° 0.4 mm 4 m/s 697 mmHg 92%
    20:00 -2°C° 0.4 mm 4 m/s 697 mmHg 92%
    21:00 -2°C° 0.6 mm 3 m/s 697 mmHg 93%
    22:00 -2°C° 0.6 mm 3 m/s 698 mmHg 93%
    23:00 -2°C° 0.6 mm 2 m/s 698 mmHg 94%

    26 Janeiro, Sábado

    Tempo Temperatura Precipitação Vento Pressão Humidade
    00:00 -2°C° 1.6 mm 2 m/s 698 mmHg 95%
    01:00 -2°C° 1.6 mm 2 m/s 698 mmHg 95%
    02:00 -2°C° 1.6 mm 2 m/s 698 mmHg 96%
    03:00 -2°C° 0.4 mm 2 m/s 698 mmHg 96%
    04:00 0°C° 0.4 mm 1 m/s 698 mmHg 95%
    05:00 0°C° 0.4 mm 1 m/s 699 mmHg 95%
    06:00 0°C° 0.1 mm 1 m/s 699 mmHg 95%
    07:00 -1°C° 0.1 mm 1 m/s 699 mmHg 95%
    08:00 -1°C° 0.1 mm 1 m/s 700 mmHg 94%
    09:00 -2°C° 0 mm 2 m/s 700 mmHg 94%
    10:00 -2°C° 0 mm 2 m/s 701 mmHg 93%
    11:00 -1°C° 0 mm 2 m/s 701 mmHg 93%
    12:00 -1°C° 0 mm 2 m/s 701 mmHg 93%
    13:00 +1°C° 0 mm 2 m/s 701 mmHg 93%
    14:00 +1°C° 0 mm 2 m/s 701 mmHg 93%
    15:00 +1°C° 0.1 mm 2 m/s 701 mmHg 93%
    16:00 -1°C° 0.1 mm 2 m/s 701 mmHg 93%
    17:00 -1°C° 0.1 mm 2 m/s 701 mmHg 93%
    18:00 -2°C° 0 mm 2 m/s 701 mmHg 93%
    19:00 0°C° 0 mm 1 m/s 701 mmHg 94%
    20:00 -1°C° 0 mm 1 m/s 701 mmHg 94%
    21:00 -1°C° 0 mm 1 m/s 701 mmHg 94%
    22:00 -1°C° 0 mm 1 m/s 701 mmHg 94%
    23:00 -2°C° 0 mm 1 m/s 701 mmHg 94%

    27 Janeiro, Domingo

    Tempo Temperatura Precipitação Vento Pressão Humidade
    00:00 -2°C° 0 mm 1 m/s 701 mmHg 94%
    01:00 -2°C° 0 mm 1 m/s 701 mmHg 94%
    02:00 -2°C° 0 mm 1 m/s 701 mmHg 95%
    03:00 -2°C° 0 mm 1 m/s 701 mmHg 94%
    04:00 -3°C° 0 mm 0 m/s 700 mmHg 94%
    05:00 -4°C° 0 mm 0 m/s 700 mmHg 93%
    06:00 -4°C° 0 mm 0 m/s 700 mmHg 93%
    07:00 -4°C° 0 mm 0 m/s 700 mmHg 92%
    08:00 -4°C° 0 mm 0 m/s 700 mmHg 91%
    09:00 -2°C° 0 mm 0 m/s 701 mmHg 90%
    10:00 0°C° 0 mm 0 m/s 701 mmHg 89%
    11:00 +1°C° 0 mm 0 m/s 701 mmHg 88%
    12:00 +2°C° 0 mm 0 m/s 701 mmHg 90%
    13:00 +3°C° 0 mm 0 m/s 701 mmHg 91%
    14:00 +3°C° 0 mm 0 m/s 701 mmHg 93%
    15:00 +3°C° 0 mm 0 m/s 701 mmHg 93%
    16:00 +2°C° 0 mm 0 m/s 701 mmHg 92%
    17:00 +2°C° 0 mm 0 m/s 701 mmHg 92%
    18:00 +1°C° 0 mm 0 m/s 701 mmHg 92%
    19:00 +2°C° 0 mm 1 m/s 701 mmHg 91%
    20:00 +1°C° 0 mm 1 m/s 702 mmHg 91%
    21:00 +1°C° 0 mm 1 m/s 702 mmHg 90%
    22:00 +1°C° 0 mm 1 m/s 702 mmHg 90%
    23:00 +1°C° 0 mm 1 m/s 703 mmHg 89%
    Mostrar mais